Overview Statistics Trail Chart Weather Telemetry Raw packets
 

This is the latest recevied weather packets stored in our database for station/object N7WSS. If no packets are shown the sender has not sent any weather packets the latest 10 day(s).

<< 75 76 77 78 79 80 81 >>
Time Temp. Humidity Pressure Rain* Wind** Luminosity Snow
1788088317 27.78° C 52% 1014.9 hPa 0 mm - - -
1788088017 27.78° C 49% 1015 hPa 0 mm - - -
1788087713 27.78° C 49% 1015.1 hPa 0 mm - - -
1788087413 27.78° C 48% 1015.1 hPa 0 mm - - -
1788087108 27.78° C 48% 1015 hPa 0 mm - - -
1788086805 27.78° C 47% 1014.7 hPa 0 mm - - -
1788086502 27.78° C 48% 1014.8 hPa 0 mm - - -
1788086201 28.33° C 48% 1014.8 hPa 0 mm - - -
1788085896 28.33° C 47% 1014.7 hPa 0 mm - - -
1788085595 28.33° C 45% 1014.9 hPa 0 mm - - -
1788085291 27.78° C 48% 1014.9 hPa 0 mm - - -
1788084987 27.78° C 48% 1014.7 hPa 0 mm - - -
1788084687 27.22° C 48% 1014.8 hPa 0 mm - - -
1788084381 27.22° C 48% 1014.4 hPa 0 mm - - -
1788084081 27.22° C 49% 1014.3 hPa 0 mm - - -
1788083780 27.22° C 49% 1014 hPa 0 mm - - -
1788083477 27.22° C 49% 1014.1 hPa 0 mm - - -
1788083173 27.22° C 48% 1014.2 hPa 0 mm - - -
1788082868 27.22° C 48% 1013.9 hPa 0 mm - - -
1788082562 27.78° C 47% 1014 hPa 0 mm - - -
1788082259 27.78° C 46% 1013.8 hPa 0 mm - - -
1788081954 27.78° C 46% 1013.8 hPa 0 mm - - -
1788081651 27.78° C 47% 1013.9 hPa 0 mm - - -
1788081346 27.78° C 46% 1013.8 hPa 0 mm - - -
1788081045 27.78° C 46% 1013.8 hPa 0 mm - - -

* Rain latest hour (hover to see other rain measurements)
** Current wind speed in m/s (hover to see current wind gust speed)